DECAYED

OBJECT AS, 59138 (Decayed)

Orbit data source: Space-Track

You're viewing an Uncataloged Satellite

Recently launched and/or uncataloged satellites may have evolving metadata. Metadata may include but not limited to: Owner, Maufacturer, Bus, Motor, and Mission.

OBJECT AS, 59138 was a satellite in LEO that was launched on Mon, 04 Mar 2024 UTC via an FALCON 9 launch vehicle from the Air Force Western Test Range (AFWTR). Unknown objects in Earth's orbit typically refer to objects detected orbiting the Earth but have not yet been identified or cataloged. These objects could be anything from previously untracked satellites, spent rocket stages, debris from satellite collisions, or even natural meteoroids temporarily captured by Earth's gravity. This object's orbit decayed before it could be identified.

Not visible in the next 10 days
Identifier
59138, 2024-043AS
Orbit
Decayed
Last TLE update
6 months ago
Origin
Flag of TBDUMROL (TBD)
Manufacturer
Mis.U.SciTech
Mission
Decayed Commercial Communications
Bus & Motor
CUBESAT 3U, Unknown motor
Mass
3.6 kg wet, 3.6 kg dry
Launch date (UTC)
2024-03-04 (1 year ago)
Launch vehicle
FALCON 9
Launch site
Air Force Western Test Range (AFWTR)
Object type
Unknown
Shape & HBR
Box + 2 Pan, 0.3 m
Radar Cross Section
0.080 m², Small (<0.1 m²)

Expand to show TLE details & history

TLE from 6 months ago
0 OBJECT AS
1 59138U 24043AS  24358.04934274  .16148578  26260-5  16621-3 0  9994
2 59138  97.4433 128.0012 0015622  16.8728 343.3093 16.50015572 45028
Epoch: 2024-12-23T01:11Z
TLE epoch observation values (Epoch: 2024-12-23T01:11:03.212Z)
Latitude
-0.00002°
Longitude
18.16044°
Altitude
132.804 km
Speed
7.832 km/s
True Right ascension
08h 32m 00s
True Declination
0° 00' 00"
Sunlit
Object was in full shadow at epoch
Visualization orbit readout
Visualization observer readout
Orbital elements
Apogee altitude
146.268 km
Perigee altitude
125.915 km
Semi-major axis
6,514.228 km
Eccentricity
0.00156
Inclination
97.4433°
RAAN
128.0012°
Arg. of periapsis
16.8728°
True anomaly
Unknown
Mean anomaly
343.3093°
Eccentric anomaly
Unknown
Mean motion
4.12809 °/min
Orbital period
87.21 mins
BSTAR
0.00016621
Loading maneuver chart data...
Loading SW <> Apogee altitude chart data...
Loading historical data...
Loading historical data...
Loading historical data...
Loading historical data...
Loading historical data...
Loading historical data...
Loading historical data...

OBJECT AS Visibility

Observer location: undefined°, undefined°

This satellite is decayed
Span
Click to sort rows by Start time (UTC) header in descending order
Start Az.
Max El. time (UTC)
Max El. Az.
Max El.
End time (UTC)
End Az.
|